Year,Month,Day,Hour,Minute,Value (Times are PST for temperature in C)
2017,01,11,00,00,-5.80
2017,01,11,00,01,-5.80
2017,01,11,00,02,-5.80
2017,01,11,00,03,-5.80
2017,01,11,00,04,-5.80
2017,01,11,00,05,-5.80
2017,01,11,00,06,-5.80
2017,01,11,00,07,-5.90
2017,01,11,00,08,-5.90
2017,01,11,00,09,-5.90
2017,01,11,00,10,-5.90
2017,01,11,00,11,-5.90
2017,01,11,00,12,-5.90
2017,01,11,00,13,-5.90
2017,01,11,00,14,-5.90
2017,01,11,00,15,-5.90
2017,01,11,00,16,-5.90
2017,01,11,00,17,-5.90
2017,01,11,00,18,-5.90
2017,01,11,00,19,-5.90
2017,01,11,00,20,-5.90
2017,01,11,00,21,-5.90
2017,01,11,00,22,-5.90
2017,01,11,00,23,-5.90
2017,01,11,00,24,-5.90
2017,01,11,00,25,-5.90
2017,01,11,00,26,-6.00
2017,01,11,00,27,-6.00
2017,01,11,00,28,-6.00
2017,01,11,00,29,-6.00
2017,01,11,00,30,-6.00
2017,01,11,00,31,-6.10
2017,01,11,00,32,-6.10
2017,01,11,00,33,-6.10
2017,01,11,00,34,-6.10
2017,01,11,00,35,-6.10
2017,01,11,00,36,-6.10
2017,01,11,00,37,-6.10
2017,01,11,00,38,-6.10
2017,01,11,00,39,-6.10
2017,01,11,00,40,-6.10
2017,01,11,00,41,-6.10
2017,01,11,00,42,-6.10
2017,01,11,00,43,-6.10
2017,01,11,00,44,-6.10
2017,01,11,00,45,-6.10
2017,01,11,00,46,-6.10
2017,01,11,00,47,-6.10
2017,01,11,00,48,-6.10
2017,01,11,00,49,-6.10
2017,01,11,00,50,-6.10
2017,01,11,00,51,-6.10
2017,01,11,00,52,-6.10
2017,01,11,00,53,-6.10
2017,01,11,00,54,-6.10
2017,01,11,00,55,-6.10
2017,01,11,00,56,-6.10
2017,01,11,00,57,-6.10
2017,01,11,00,58,-6.10
2017,01,11,00,59,-6.10
2017,01,11,01,00,-6.10
2017,01,11,01,01,-6.10
2017,01,11,01,02,-6.10
2017,01,11,01,03,-6.10
2017,01,11,01,04,-6.10
2017,01,11,01,05,-6.10
2017,01,11,01,06,-6.10
2017,01,11,01,07,-6.10
2017,01,11,01,08,-6.10
2017,01,11,01,09,-6.10
2017,01,11,01,10,-6.10
2017,01,11,01,11,-6.10
2017,01,11,01,12,-6.10
2017,01,11,01,13,-6.10
2017,01,11,01,14,-6.10
2017,01,11,01,15,-6.20
2017,01,11,01,16,-6.20
2017,01,11,01,17,-6.20
2017,01,11,01,18,-6.20
2017,01,11,01,19,-6.20
2017,01,11,01,20,-6.20
2017,01,11,01,21,-6.20
2017,01,11,01,22,-6.20
2017,01,11,01,23,-6.20
2017,01,11,01,24,-6.20
2017,01,11,01,25,-6.20
2017,01,11,01,26,-6.20
2017,01,11,01,27,-6.20
2017,01,11,01,28,-6.20
2017,01,11,01,29,-6.20
2017,01,11,01,30,-6.20
2017,01,11,01,31,-6.20
2017,01,11,01,32,-6.20
2017,01,11,01,33,-6.20
2017,01,11,01,34,-6.20
2017,01,11,01,35,-6.30
2017,01,11,01,36,-6.30
2017,01,11,01,37,-6.30
2017,01,11,01,38,-6.30
2017,01,11,01,39,-6.30
2017,01,11,01,40,-6.30
2017,01,11,01,41,-6.40
2017,01,11,01,42,-6.40
2017,01,11,01,43,-6.40
2017,01,11,01,44,-6.40
2017,01,11,01,45,-6.40
2017,01,11,01,46,-6.40
2017,01,11,01,47,-6.40
2017,01,11,01,48,-6.40
2017,01,11,01,49,-6.40
2017,01,11,01,50,-6.40
2017,01,11,01,51,-6.40
2017,01,11,01,52,-6.40
2017,01,11,01,53,-6.40
2017,01,11,01,54,-6.40
2017,01,11,01,55,-6.40
2017,01,11,01,56,-6.40
2017,01,11,01,57,-6.40
2017,01,11,01,58,-6.40
2017,01,11,01,59,-6.40
2017,01,11,02,00,-6.40
2017,01,11,02,01,-6.40
2017,01,11,02,02,-6.40
2017,01,11,02,03,-6.40
2017,01,11,02,04,-6.40
2017,01,11,02,05,-6.40
2017,01,11,02,06,-6.40
2017,01,11,02,07,-6.40
2017,01,11,02,08,-6.40
2017,01,11,02,09,-6.40
2017,01,11,02,10,-6.50
2017,01,11,02,11,-6.50
2017,01,11,02,12,-6.50
2017,01,11,02,13,-6.50
2017,01,11,02,14,-6.50
2017,01,11,02,15,-6.40
2017,01,11,02,16,-6.50
2017,01,11,02,17,-6.50
2017,01,11,02,18,-6.50
2017,01,11,02,19,-6.50
2017,01,11,02,20,-6.50
2017,01,11,02,21,-6.50
2017,01,11,02,22,-6.50
2017,01,11,02,23,-6.50
2017,01,11,02,24,-6.50
2017,01,11,02,25,-6.50
2017,01,11,02,26,-6.60
2017,01,11,02,27,-6.60
2017,01,11,02,28,-6.60
2017,01,11,02,29,-6.60
2017,01,11,02,30,-6.60
2017,01,11,02,31,-6.60
2017,01,11,02,32,-6.60
2017,01,11,02,33,-6.60
2017,01,11,02,34,-6.60
2017,01,11,02,35,-6.60
2017,01,11,02,36,-6.60
2017,01,11,02,37,-6.60
2017,01,11,02,38,-6.60
2017,01,11,02,39,-6.60
2017,01,11,02,40,-6.60
2017,01,11,02,41,-6.60
2017,01,11,02,42,-6.60
2017,01,11,02,43,-6.60
2017,01,11,02,44,-6.60
2017,01,11,02,45,-6.60
2017,01,11,02,46,-6.60
2017,01,11,02,47,-6.60
2017,01,11,02,48,-6.60
2017,01,11,02,49,-6.70
2017,01,11,02,50,-6.70
2017,01,11,02,51,-6.70
2017,01,11,02,52,-6.70
2017,01,11,02,53,-6.70
2017,01,11,02,54,-6.70
2017,01,11,02,55,-6.70
2017,01,11,02,56,-6.70
2017,01,11,02,57,-6.70
2017,01,11,02,58,-6.70
2017,01,11,02,59,-6.70
2017,01,11,03,00,-6.70
2017,01,11,03,01,-6.70
2017,01,11,03,02,-6.70
2017,01,11,03,03,-6.70
2017,01,11,03,04,-6.70
2017,01,11,03,05,-6.70
2017,01,11,03,06,-6.70
2017,01,11,03,07,-6.70
2017,01,11,03,08,-6.70
2017,01,11,03,09,-6.70
2017,01,11,03,10,-6.70
2017,01,11,03,11,-6.70
2017,01,11,03,12,-6.70
2017,01,11,03,13,-6.70
2017,01,11,03,14,-6.70
2017,01,11,03,15,-6.70
2017,01,11,03,16,-6.70
2017,01,11,03,17,-6.70
2017,01,11,03,18,-6.70
2017,01,11,03,19,-6.70
2017,01,11,03,20,-6.70
2017,01,11,03,21,-6.70
2017,01,11,03,22,-6.70
2017,01,11,03,23,-6.70
2017,01,11,03,24,-6.70
2017,01,11,03,25,-6.80
2017,01,11,03,26,-6.80
2017,01,11,03,27,-6.80
2017,01,11,03,28,-6.80
2017,01,11,03,29,-6.80
2017,01,11,03,30,-6.80
2017,01,11,03,31,-6.80
2017,01,11,03,32,-6.80
2017,01,11,03,33,-6.80
2017,01,11,03,34,-6.80
2017,01,11,03,35,-6.80
2017,01,11,03,36,-6.80
2017,01,11,03,37,-6.90
2017,01,11,03,38,-6.90
2017,01,11,03,39,-6.90
2017,01,11,03,40,-6.90
2017,01,11,03,41,-6.90
2017,01,11,03,42,-6.90
2017,01,11,03,43,-6.90
2017,01,11,03,44,-6.90
2017,01,11,03,45,-6.90
2017,01,11,03,46,-6.90
2017,01,11,03,47,-6.90
2017,01,11,03,48,-6.90
2017,01,11,03,49,-6.90
2017,01,11,03,50,-6.90
2017,01,11,03,51,-6.90
2017,01,11,03,52,-7.00
2017,01,11,03,53,-6.90
2017,01,11,03,54,-7.00
2017,01,11,03,55,-7.00
2017,01,11,03,56,-7.00
2017,01,11,03,57,-7.00
2017,01,11,03,58,-7.00
2017,01,11,03,59,-7.00
2017,01,11,04,00,-7.00
2017,01,11,04,01,-7.00
2017,01,11,04,02,-7.00
2017,01,11,04,03,-7.00
2017,01,11,04,04,-7.00
2017,01,11,04,05,-7.00
2017,01,11,04,06,-7.00
2017,01,11,04,07,-7.00
2017,01,11,04,08,-7.10
2017,01,11,04,09,-7.10
2017,01,11,04,10,-7.10
2017,01,11,04,11,-7.10
2017,01,11,04,12,-7.10
2017,01,11,04,13,-7.10
2017,01,11,04,14,-7.10
2017,01,11,04,15,-7.10
2017,01,11,04,16,-7.10
2017,01,11,04,17,-7.10
2017,01,11,04,18,-7.10
2017,01,11,04,19,-7.10
2017,01,11,04,20,-7.10
2017,01,11,04,21,-7.20
2017,01,11,04,22,-7.20
2017,01,11,04,23,-7.20
2017,01,11,04,24,-7.20
2017,01,11,04,25,-7.20
2017,01,11,04,26,-7.20
2017,01,11,04,27,-7.20
2017,01,11,04,28,-7.20
2017,01,11,04,29,-7.20
2017,01,11,04,30,-7.20
2017,01,11,04,31,-7.20
2017,01,11,04,32,-7.20
2017,01,11,04,33,-7.20
2017,01,11,04,34,-7.20
2017,01,11,04,35,-7.20
2017,01,11,04,36,-7.20
2017,01,11,04,37,-7.20
2017,01,11,04,38,-7.20
2017,01,11,04,39,-7.30
2017,01,11,04,40,-7.30
2017,01,11,04,41,-7.30
2017,01,11,04,42,-7.30
2017,01,11,04,43,-7.30
2017,01,11,04,44,-7.30
2017,01,11,04,45,-7.30
2017,01,11,04,46,-7.30
2017,01,11,04,47,-7.30
2017,01,11,04,48,-7.30
2017,01,11,04,49,-7.30
2017,01,11,04,50,-7.30
2017,01,11,04,51,-7.30
2017,01,11,04,52,-7.30
2017,01,11,04,53,-7.30
2017,01,11,04,54,-7.30
2017,01,11,04,55,-7.30
2017,01,11,04,56,-7.30
2017,01,11,04,57,-7.30
2017,01,11,04,58,-7.30
2017,01,11,04,59,-7.30
2017,01,11,05,00,-7.30
2017,01,11,05,01,-7.30
2017,01,11,05,02,-7.30
2017,01,11,05,03,-7.30
2017,01,11,05,04,-7.40
2017,01,11,05,05,-7.40
2017,01,11,05,06,-7.40
2017,01,11,05,07,-7.40
2017,01,11,05,08,-7.40
2017,01,11,05,09,-7.40
2017,01,11,05,10,-7.40
2017,01,11,05,11,-7.40
2017,01,11,05,12,-7.40
2017,01,11,05,13,-7.40
2017,01,11,05,14,-7.40
2017,01,11,05,15,-7.30
2017,01,11,05,16,-7.30
2017,01,11,05,17,-7.30
2017,01,11,05,18,-7.30
2017,01,11,05,19,-7.40
2017,01,11,05,20,-7.40
2017,01,11,05,21,-7.40
2017,01,11,05,22,-7.40
2017,01,11,05,23,-7.40
2017,01,11,05,24,-7.40
2017,01,11,05,25,-7.40
2017,01,11,05,26,-7.40
2017,01,11,05,27,-7.40
2017,01,11,05,28,-7.40
2017,01,11,05,29,-7.40
2017,01,11,05,30,-7.40
2017,01,11,05,31,-7.40
2017,01,11,05,32,-7.40
2017,01,11,05,33,-7.40
2017,01,11,05,34,-7.40
2017,01,11,05,35,-7.40
2017,01,11,05,36,-7.40
2017,01,11,05,37,-7.40
2017,01,11,05,38,-7.40
2017,01,11,05,39,-7.50
2017,01,11,05,40,-7.50
2017,01,11,05,41,-7.50
2017,01,11,05,42,-7.50
2017,01,11,05,43,-7.50
2017,01,11,05,44,-7.60
2017,01,11,05,45,-7.60
2017,01,11,05,46,-7.60
2017,01,11,05,47,-7.60
2017,01,11,05,48,-7.60
2017,01,11,05,49,-7.60
2017,01,11,05,50,-7.60
2017,01,11,05,51,-7.60
2017,01,11,05,52,-7.60
2017,01,11,05,53,-7.60
2017,01,11,05,54,-7.60
2017,01,11,05,55,-7.60
2017,01,11,05,56,-7.60
2017,01,11,05,57,-7.60
2017,01,11,05,58,-7.60
2017,01,11,05,59,-7.60
2017,01,11,06,00,-7.60
2017,01,11,06,01,-7.60
2017,01,11,06,02,-7.60
2017,01,11,06,03,-7.60
2017,01,11,06,04,-7.60
2017,01,11,06,05,-7.60
2017,01,11,06,06,-7.60
2017,01,11,06,07,-7.60
2017,01,11,06,08,-7.60
2017,01,11,06,09,-7.70
2017,01,11,06,10,-7.70
2017,01,11,06,11,-7.70
2017,01,11,06,12,-7.60
2017,01,11,06,13,-7.60
2017,01,11,06,14,-7.60
2017,01,11,06,15,-7.60
2017,01,11,06,16,-7.70
2017,01,11,06,17,-7.70
2017,01,11,06,18,-7.70
2017,01,11,06,19,-7.70
2017,01,11,06,20,-7.70
2017,01,11,06,21,-7.70
2017,01,11,06,22,-7.70
2017,01,11,06,23,-7.70
2017,01,11,06,24,-7.70
2017,01,11,06,25,-7.70
2017,01,11,06,26,-7.70
2017,01,11,06,27,-7.70
2017,01,11,06,28,-7.70
2017,01,11,06,29,-7.70
2017,01,11,06,30,-7.70
2017,01,11,06,31,-7.70
2017,01,11,06,32,-7.70
2017,01,11,06,33,-7.80
2017,01,11,06,34,-7.80
2017,01,11,06,35,-7.70
2017,01,11,06,36,-7.70
2017,01,11,06,37,-7.80
2017,01,11,06,38,-7.80
2017,01,11,06,39,-7.80
2017,01,11,06,40,-7.80
2017,01,11,06,41,-7.80
2017,01,11,06,42,-7.80
2017,01,11,06,43,-7.80
2017,01,11,06,44,-7.80
2017,01,11,06,45,-7.80
2017,01,11,06,46,-7.80
2017,01,11,06,47,-7.80
2017,01,11,06,48,-7.90
2017,01,11,06,49,-7.90
2017,01,11,06,50,-7.90
2017,01,11,06,51,-7.90
2017,01,11,06,52,-7.90
2017,01,11,06,53,-7.90
2017,01,11,06,54,-7.90
2017,01,11,06,55,-7.90
2017,01,11,06,56,-7.90
2017,01,11,06,57,-7.90
2017,01,11,06,58,-7.90
2017,01,11,06,59,-7.90
2017,01,11,07,00,-7.90
2017,01,11,07,01,-7.90
2017,01,11,07,02,-7.90
2017,01,11,07,03,-7.90
2017,01,11,07,04,-7.90
2017,01,11,07,05,-7.90
2017,01,11,07,06,-7.90
2017,01,11,07,07,-7.90
2017,01,11,07,08,-7.90
2017,01,11,07,09,-7.90
2017,01,11,07,10,-7.90
2017,01,11,07,11,-7.90
2017,01,11,07,12,-7.90
2017,01,11,07,13,-7.90
2017,01,11,07,14,-8.00
2017,01,11,07,15,-8.00
2017,01,11,07,16,-8.00
2017,01,11,07,17,-8.00
2017,01,11,07,18,-8.00
2017,01,11,07,19,-8.00
2017,01,11,07,20,-8.00
2017,01,11,07,21,-8.00
2017,01,11,07,22,-8.00
2017,01,11,07,23,-8.00
2017,01,11,07,24,-8.00
2017,01,11,07,25,-8.00
2017,01,11,07,26,-8.00
2017,01,11,07,27,-8.00
2017,01,11,07,28,-8.00
2017,01,11,07,29,-8.10
2017,01,11,07,30,-8.10
2017,01,11,07,31,-8.10
2017,01,11,07,32,-8.10
2017,01,11,07,33,-8.10
2017,01,11,07,34,-8.10
2017,01,11,07,35,-8.10
2017,01,11,07,36,-8.10
2017,01,11,07,37,-8.10
2017,01,11,07,38,-8.10
2017,01,11,07,39,-8.20
2017,01,11,07,40,-8.20
2017,01,11,07,41,-8.20
2017,01,11,07,42,-8.20
2017,01,11,07,43,-8.20
2017,01,11,07,44,-8.20
2017,01,11,07,45,-8.20
2017,01,11,07,46,-8.20
2017,01,11,07,47,-8.20
2017,01,11,07,48,-8.20
2017,01,11,07,49,-8.20
2017,01,11,07,50,-8.20
2017,01,11,07,51,-8.20
2017,01,11,07,52,-8.20
2017,01,11,07,53,-8.20
2017,01,11,07,54,-8.20
2017,01,11,07,55,-8.20
2017,01,11,07,56,-8.20
2017,01,11,07,57,-8.20
2017,01,11,07,58,-8.20
2017,01,11,07,59,-8.20
2017,01,11,08,00,-8.20
2017,01,11,08,01,-8.20
2017,01,11,08,02,-8.20
2017,01,11,08,03,-8.20
2017,01,11,08,04,-8.20
2017,01,11,08,05,-8.20
2017,01,11,08,06,-8.20
2017,01,11,08,07,-8.30
2017,01,11,08,08,-8.30
2017,01,11,08,09,-8.30
2017,01,11,08,10,-8.30
2017,01,11,08,11,-8.30
2017,01,11,08,12,-8.30
2017,01,11,08,13,-8.30
2017,01,11,08,14,-8.30
2017,01,11,08,15,-8.30
2017,01,11,08,16,-8.30
2017,01,11,08,17,-8.30
2017,01,11,08,18,-8.30
2017,01,11,08,19,-8.30
2017,01,11,08,20,-8.30
2017,01,11,08,21,-8.30
2017,01,11,08,22,-8.30
2017,01,11,08,23,-8.30
2017,01,11,08,24,-8.30
2017,01,11,08,25,-8.30
2017,01,11,08,26,-8.40
2017,01,11,08,27,-8.40
2017,01,11,08,28,-8.40
2017,01,11,08,29,-8.40
2017,01,11,08,30,-8.40
2017,01,11,08,31,-8.40
2017,01,11,08,32,-8.40
2017,01,11,08,33,-8.40
2017,01,11,08,34,-8.40
2017,01,11,08,35,-8.50
2017,01,11,08,36,-8.50
2017,01,11,08,37,-8.50
2017,01,11,08,38,-8.50
2017,01,11,08,39,-8.50
2017,01,11,08,40,-8.50
2017,01,11,08,41,-8.50
2017,01,11,08,42,-8.50
2017,01,11,08,43,-8.50
2017,01,11,08,44,-8.50
2017,01,11,08,45,-8.50
2017,01,11,08,46,-8.50
2017,01,11,08,47,-8.50
2017,01,11,08,48,-8.50
2017,01,11,08,49,-8.50
2017,01,11,08,50,-8.50
2017,01,11,08,51,-8.50
2017,01,11,08,52,-8.50
2017,01,11,08,53,-8.50
2017,01,11,08,54,-8.50
2017,01,11,08,55,-8.50
2017,01,11,08,56,-8.50
2017,01,11,08,57,-8.50
2017,01,11,08,58,-8.50
2017,01,11,08,59,-8.50
2017,01,11,09,00,-8.50
2017,01,11,09,01,-8.50
2017,01,11,09,02,-8.40
2017,01,11,09,03,-8.40
2017,01,11,09,04,-8.40
2017,01,11,09,05,-8.40
2017,01,11,09,06,-8.40
2017,01,11,09,07,-8.30
2017,01,11,09,08,-8.30
2017,01,11,09,09,-8.30
2017,01,11,09,10,-8.30
2017,01,11,09,11,-8.20
2017,01,11,09,12,-8.20
2017,01,11,09,13,-8.10
2017,01,11,09,14,-8.00
2017,01,11,09,15,-8.00
2017,01,11,09,16,-7.90
2017,01,11,09,17,-7.90
2017,01,11,09,18,-7.80
2017,01,11,09,19,-7.80
2017,01,11,09,20,-7.80
2017,01,11,09,21,-7.70
2017,01,11,09,22,-7.70
2017,01,11,09,23,-7.70
2017,01,11,09,24,-7.60
2017,01,11,09,25,-7.60
2017,01,11,09,26,-7.50
2017,01,11,09,27,-7.50
2017,01,11,09,28,-7.40
2017,01,11,09,29,-7.40
2017,01,11,09,30,-7.40
2017,01,11,09,31,-7.30
2017,01,11,09,32,-7.30
2017,01,11,09,33,-7.30
2017,01,11,09,34,-7.30
2017,01,11,09,35,-7.30
2017,01,11,09,36,-7.30
2017,01,11,09,37,-7.30
2017,01,11,09,38,-7.20
2017,01,11,09,39,-7.20
2017,01,11,09,40,-7.20
2017,01,11,09,41,-7.20
2017,01,11,09,42,-7.10
2017,01,11,09,43,-7.10
2017,01,11,09,44,-7.00
2017,01,11,09,45,-7.00
2017,01,11,09,46,-6.90
2017,01,11,09,47,-6.80
2017,01,11,09,48,-6.80
2017,01,11,09,49,-6.70
2017,01,11,09,50,-6.60
2017,01,11,09,51,-6.60
2017,01,11,09,52,-6.50
2017,01,11,09,53,-6.50
2017,01,11,09,54,-6.50
2017,01,11,09,55,-6.50
2017,01,11,09,56,-6.50
2017,01,11,09,57,-6.40
2017,01,11,09,58,-6.40
2017,01,11,09,59,-6.40
2017,01,11,10,00,-6.50
2017,01,11,10,01,-6.50
2017,01,11,10,02,-6.50
2017,01,11,10,03,-6.50
2017,01,11,10,04,-6.50
2017,01,11,10,05,-6.50
2017,01,11,10,06,-6.50
2017,01,11,10,07,-6.50
2017,01,11,10,08,-6.40
2017,01,11,10,09,-6.40
2017,01,11,10,10,-6.40
2017,01,11,10,11,-6.40
2017,01,11,10,12,-6.40
2017,01,11,10,13,-6.40
2017,01,11,10,14,-6.40
2017,01,11,10,15,-6.40
2017,01,11,10,16,-6.40
2017,01,11,10,17,-6.40
2017,01,11,10,18,-6.40
2017,01,11,10,19,-6.40
2017,01,11,10,20,-6.30
2017,01,11,10,21,-6.30
2017,01,11,10,22,-6.20
2017,01,11,10,23,-6.20
2017,01,11,10,24,-6.10
2017,01,11,10,25,-6.00
2017,01,11,10,26,-6.00
2017,01,11,10,27,-5.90
2017,01,11,10,28,-5.80
2017,01,11,10,29,-5.80
2017,01,11,10,30,-5.80
2017,01,11,10,31,-5.70
2017,01,11,10,32,-5.70
2017,01,11,10,33,-5.70
2017,01,11,10,34,-5.60
2017,01,11,10,35,-5.60
2017,01,11,10,36,-5.60
2017,01,11,10,37,-5.60
2017,01,11,10,38,-5.60
2017,01,11,10,39,-5.60
2017,01,11,10,40,-5.70
2017,01,11,10,41,-5.70
2017,01,11,10,42,-5.60
2017,01,11,10,43,-5.60
2017,01,11,10,44,-5.60
2017,01,11,10,45,-5.60
2017,01,11,10,46,-5.50
2017,01,11,10,47,-5.50
2017,01,11,10,48,-5.50
2017,01,11,10,49,-5.40
2017,01,11,10,50,-5.40
2017,01,11,10,51,-5.40
2017,01,11,10,52,-5.30
2017,01,11,10,53,-5.30
2017,01,11,10,54,-5.20
2017,01,11,10,55,-5.20
2017,01,11,10,56,-5.20
2017,01,11,10,57,-5.10
2017,01,11,10,58,-5.10
2017,01,11,10,59,-5.00
2017,01,11,11,00,-5.00
2017,01,11,11,01,-5.00
2017,01,11,11,02,-4.90
2017,01,11,11,03,-4.90
2017,01,11,11,04,-4.80
2017,01,11,11,05,-4.70
2017,01,11,11,06,-4.70
2017,01,11,11,07,-4.70
2017,01,11,11,08,-4.60
2017,01,11,11,09,-4.60
2017,01,11,11,10,-4.60
2017,01,11,11,11,-4.60
2017,01,11,11,12,-4.60
2017,01,11,11,13,-4.60
2017,01,11,11,14,-4.60
2017,01,11,11,15,-4.60
2017,01,11,11,16,-4.60
2017,01,11,11,17,-4.50
2017,01,11,11,18,-4.50
2017,01,11,11,19,-4.40
2017,01,11,11,20,-4.40
2017,01,11,11,21,-4.30
2017,01,11,11,22,-4.30
2017,01,11,11,23,-4.30
2017,01,11,11,24,-4.20
2017,01,11,11,25,-4.20
2017,01,11,11,26,-4.20
2017,01,11,11,27,-4.20
2017,01,11,11,28,-4.10
2017,01,11,11,29,-4.10
2017,01,11,11,30,-4.00
2017,01,11,11,31,-3.90
2017,01,11,11,32,-3.90
2017,01,11,11,33,-3.80
2017,01,11,11,34,-3.80
2017,01,11,11,35,-3.70
2017,01,11,11,36,-3.70
2017,01,11,11,37,-3.70
2017,01,11,11,38,-3.60
2017,01,11,11,39,-3.60
2017,01,11,11,40,-3.60
2017,01,11,11,41,-3.60
2017,01,11,11,42,-3.60
2017,01,11,11,43,-3.60
2017,01,11,11,44,-3.60
2017,01,11,11,45,-3.50
2017,01,11,11,46,-3.50
2017,01,11,11,47,-3.40
2017,01,11,11,48,-3.40
2017,01,11,11,49,-3.30
2017,01,11,11,50,-3.30
2017,01,11,11,51,-3.20
2017,01,11,11,52,-3.20
2017,01,11,11,53,-3.20
2017,01,11,11,54,-3.10
2017,01,11,11,55,-3.10
2017,01,11,11,56,-3.10
2017,01,11,11,57,-3.10
2017,01,11,11,58,-3.10
2017,01,11,11,59,-3.00
2017,01,11,12,00,-3.00
2017,01,11,12,01,-3.00
2017,01,11,12,02,-2.90
2017,01,11,12,03,-2.90
2017,01,11,12,04,-2.80
2017,01,11,12,05,-2.80
2017,01,11,12,06,-2.70
2017,01,11,12,07,-2.70
2017,01,11,12,08,-2.60
2017,01,11,12,09,-2.50
2017,01,11,12,10,-2.50
2017,01,11,12,11,-2.40
2017,01,11,12,12,-2.40
2017,01,11,12,13,-2.40
2017,01,11,12,14,-2.30
2017,01,11,12,15,-2.30
2017,01,11,12,16,-2.30
2017,01,11,12,17,-2.30
2017,01,11,12,18,-2.30
2017,01,11,12,19,-2.30
2017,01,11,12,20,-2.30
2017,01,11,12,21,-2.30
2017,01,11,12,22,-2.30
2017,01,11,12,23,-2.30
2017,01,11,12,24,-2.30
2017,01,11,12,25,-2.30
2017,01,11,12,26,-2.30
2017,01,11,12,27,-2.30
2017,01,11,12,28,-2.30
2017,01,11,12,29,-2.30
2017,01,11,12,30,-2.30
2017,01,11,12,31,-2.30
2017,01,11,12,32,-2.30
2017,01,11,12,33,-2.20
2017,01,11,12,34,-2.30
2017,01,11,12,35,-2.30
2017,01,11,12,36,-2.30
2017,01,11,12,37,-2.30
2017,01,11,12,38,-2.30
2017,01,11,12,39,-2.30
2017,01,11,12,40,-2.40
2017,01,11,12,41,-2.40
2017,01,11,12,42,-2.40
2017,01,11,12,43,-2.40
2017,01,11,12,44,-2.40
2017,01,11,12,45,-2.50
2017,01,11,12,46,-2.50
2017,01,11,12,47,-2.60
2017,01,11,12,48,-2.60
2017,01,11,12,49,-2.60
2017,01,11,12,50,-2.60
2017,01,11,12,51,-2.60
2017,01,11,12,52,-2.70
2017,01,11,12,53,-2.70
2017,01,11,12,54,-2.70
2017,01,11,12,55,-2.70
2017,01,11,12,56,-2.70
2017,01,11,12,57,-2.70
2017,01,11,12,58,-2.70
2017,01,11,12,59,-2.70
2017,01,11,13,00,-2.70
2017,01,11,13,01,-2.70
2017,01,11,13,02,-2.70
2017,01,11,13,03,-2.70
2017,01,11,13,04,-2.70
2017,01,11,13,05,-2.60
2017,01,11,13,06,-2.60
2017,01,11,13,07,-2.60
2017,01,11,13,08,-2.50
2017,01,11,13,09,-2.50
2017,01,11,13,10,-2.50
2017,01,11,13,11,-2.50
2017,01,11,13,12,-2.50
2017,01,11,13,13,-2.50
2017,01,11,13,14,-2.50
2017,01,11,13,15,-2.50
2017,01,11,13,16,-2.40
2017,01,11,13,17,-2.50
2017,01,11,13,18,-2.50
2017,01,11,13,19,-2.50
2017,01,11,13,20,-2.60
2017,01,11,13,21,-2.70
2017,01,11,13,22,-2.70
2017,01,11,13,23,-2.80
2017,01,11,13,24,-2.90
2017,01,11,13,25,-2.90
2017,01,11,13,26,-3.00
2017,01,11,13,27,-3.10
2017,01,11,13,28,-3.10
2017,01,11,13,29,-3.20
2017,01,11,13,30,-3.20
2017,01,11,13,31,-3.30
2017,01,11,13,32,-3.30
2017,01,11,13,33,-3.30
2017,01,11,13,34,-3.40
2017,01,11,13,35,-3.40
2017,01,11,13,36,-3.40
2017,01,11,13,37,-3.40
2017,01,11,13,38,-3.50
2017,01,11,13,39,-3.50
2017,01,11,13,40,-3.50
2017,01,11,13,41,-3.50
2017,01,11,13,42,-3.60
2017,01,11,13,43,-3.60
2017,01,11,13,44,-3.60
2017,01,11,13,45,-3.60
2017,01,11,13,46,-3.70
2017,01,11,13,47,-3.70
2017,01,11,13,48,-3.70
2017,01,11,13,49,-3.70
2017,01,11,13,50,-3.70
2017,01,11,13,51,-3.70
2017,01,11,13,52,-3.70
2017,01,11,13,53,-3.70
2017,01,11,13,54,-3.70
2017,01,11,13,55,-3.70
2017,01,11,13,56,-3.70
2017,01,11,13,57,-3.80
2017,01,11,13,58,-3.70
2017,01,11,13,59,-3.70
2017,01,11,14,00,-3.70
2017,01,11,14,01,-3.70
2017,01,11,14,02,-3.70
2017,01,11,14,03,-3.70
2017,01,11,14,04,-3.80
2017,01,11,14,05,-3.80
2017,01,11,14,06,-3.80
2017,01,11,14,07,-3.80
2017,01,11,14,08,-3.80
2017,01,11,14,09,-3.80
2017,01,11,14,10,-3.70
2017,01,11,14,11,-3.70
2017,01,11,14,12,-3.70
2017,01,11,14,13,-3.70
2017,01,11,14,14,-3.70
2017,01,11,14,15,-3.70
2017,01,11,14,16,-3.70
2017,01,11,14,17,-3.70
2017,01,11,14,18,-3.70
2017,01,11,14,19,-3.70
2017,01,11,14,20,-3.70
2017,01,11,14,21,-3.70
2017,01,11,14,22,-3.70
2017,01,11,14,23,-3.70
2017,01,11,14,24,-3.70
2017,01,11,14,25,-3.80
2017,01,11,14,26,-3.80
2017,01,11,14,27,-3.70
2017,01,11,14,28,-3.70
2017,01,11,14,29,-3.70
2017,01,11,14,30,-3.70
2017,01,11,14,31,-3.70
2017,01,11,14,32,-3.70
2017,01,11,14,33,-3.70
2017,01,11,14,34,-3.70
2017,01,11,14,35,-3.70
2017,01,11,14,36,-3.70
2017,01,11,14,37,-3.70
2017,01,11,14,38,-3.70
2017,01,11,14,39,-3.70
2017,01,11,14,40,-3.70
2017,01,11,14,41,-3.70
2017,01,11,14,42,-3.70
2017,01,11,14,43,-3.70
2017,01,11,14,44,-3.70
2017,01,11,14,45,-3.70
2017,01,11,14,46,-3.70
2017,01,11,14,47,-3.60
2017,01,11,14,48,-3.60
2017,01,11,14,49,-3.60
2017,01,11,14,50,-3.50
2017,01,11,14,51,-3.50
2017,01,11,14,52,-3.40
2017,01,11,14,53,-3.30
2017,01,11,14,54,-3.20
2017,01,11,14,55,-3.10
2017,01,11,14,56,-3.00
2017,01,11,14,57,-2.90
2017,01,11,14,58,-2.80
2017,01,11,14,59,-2.70
2017,01,11,15,00,-2.60
2017,01,11,15,01,-2.60
2017,01,11,15,02,-2.60
2017,01,11,15,03,-2.60
2017,01,11,15,04,-2.60
2017,01,11,15,05,-2.60
2017,01,11,15,06,-2.70
2017,01,11,15,07,-2.70
2017,01,11,15,08,-2.80
2017,01,11,15,09,-2.90
2017,01,11,15,10,-3.00
2017,01,11,15,11,-3.10
2017,01,11,15,12,-3.20
2017,01,11,15,13,-3.20
2017,01,11,15,14,-3.20
2017,01,11,15,15,-3.30
2017,01,11,15,16,-3.30
2017,01,11,15,17,-3.30
2017,01,11,15,18,-3.40
2017,01,11,15,19,-3.40
2017,01,11,15,20,-3.40
2017,01,11,15,21,-3.30
2017,01,11,15,22,-3.20
2017,01,11,15,23,-3.10
2017,01,11,15,24,-3.00
2017,01,11,15,25,-2.90
2017,01,11,15,26,-2.90
2017,01,11,15,27,-2.80
2017,01,11,15,28,-2.80
2017,01,11,15,29,-2.80
2017,01,11,15,30,-2.80
2017,01,11,15,31,-2.70
2017,01,11,15,32,-2.80
2017,01,11,15,33,-2.80
2017,01,11,15,34,-2.80
2017,01,11,15,35,-2.80
2017,01,11,15,36,-2.80
2017,01,11,15,37,-2.80
2017,01,11,15,38,-2.80
2017,01,11,15,39,-2.90
2017,01,11,15,40,-2.90
2017,01,11,15,41,-2.90
2017,01,11,15,42,-2.90
2017,01,11,15,43,-3.00
2017,01,11,15,44,-3.00
2017,01,11,15,45,-3.00
2017,01,11,15,46,-3.00
2017,01,11,15,47,-3.10
2017,01,11,15,48,-3.00
2017,01,11,15,49,-3.10
2017,01,11,15,50,-3.10
2017,01,11,15,51,-3.10
2017,01,11,15,52,-3.10
2017,01,11,15,53,-3.10
2017,01,11,15,54,-3.10
2017,01,11,15,55,-3.10
2017,01,11,15,56,-3.10
2017,01,11,15,57,-3.10
2017,01,11,15,58,-3.10
2017,01,11,15,59,-3.10
2017,01,11,16,00,-3.10
2017,01,11,16,01,-3.10
2017,01,11,16,02,-3.10
2017,01,11,16,03,-3.10
2017,01,11,16,04,-3.20
2017,01,11,16,05,-3.20
2017,01,11,16,06,-3.20
2017,01,11,16,07,-3.20
2017,01,11,16,08,-3.20
2017,01,11,16,09,-3.20
2017,01,11,16,10,-3.20
2017,01,11,16,11,-3.20
2017,01,11,16,12,-3.20
2017,01,11,16,13,-3.20
2017,01,11,16,14,-3.20
2017,01,11,16,15,-3.20
2017,01,11,16,16,-3.20
2017,01,11,16,17,-3.20
2017,01,11,16,18,-3.20
2017,01,11,16,19,-3.20
2017,01,11,16,20,-3.20
2017,01,11,16,21,-3.20
2017,01,11,16,22,-3.20
2017,01,11,16,23,-3.20
2017,01,11,16,24,-3.30
2017,01,11,16,25,-3.30
2017,01,11,16,26,-3.30
2017,01,11,16,27,-3.30
2017,01,11,16,28,-3.30
2017,01,11,16,29,-3.20
2017,01,11,16,30,-3.20
2017,01,11,16,31,-3.20
2017,01,11,16,32,-3.20
2017,01,11,16,33,-3.20
2017,01,11,16,34,-3.20
2017,01,11,16,35,-3.30
2017,01,11,16,36,-3.30
2017,01,11,16,37,-3.30
2017,01,11,16,38,-3.30
2017,01,11,16,39,-3.40
2017,01,11,16,40,-3.40
2017,01,11,16,41,-3.40
2017,01,11,16,42,-3.50
2017,01,11,16,43,-3.50
2017,01,11,16,44,-3.50
2017,01,11,16,45,-3.60
2017,01,11,16,46,-3.60
2017,01,11,16,47,-3.60
2017,01,11,16,48,-3.50
2017,01,11,16,49,-3.50
2017,01,11,16,50,-3.40
2017,01,11,16,51,-3.40
2017,01,11,16,52,-3.40
2017,01,11,16,53,-3.40
2017,01,11,16,54,-3.40
2017,01,11,16,55,-3.40
2017,01,11,16,56,-3.40
2017,01,11,16,57,-3.40
2017,01,11,16,58,-3.50
2017,01,11,16,59,-3.50
2017,01,11,17,00,-3.50
2017,01,11,17,01,-3.50
2017,01,11,17,02,-3.50
2017,01,11,17,03,-3.50
2017,01,11,17,04,-3.50
2017,01,11,17,05,-3.50
2017,01,11,17,06,-3.50
2017,01,11,17,07,-3.50
2017,01,11,17,08,-3.50
2017,01,11,17,09,-3.50
2017,01,11,17,10,-3.50
2017,01,11,17,11,-3.50
2017,01,11,17,12,-3.60
2017,01,11,17,13,-3.60
2017,01,11,17,14,-3.60
2017,01,11,17,15,-3.60
2017,01,11,17,16,-3.60
2017,01,11,17,17,-3.60
2017,01,11,17,18,-3.60
2017,01,11,17,19,-3.60